Location: Newark
(25.6108°S, 54.5803°W)
Time: 08:53:00
(UTC+00:00)

Tiros 1 - Pass Details

Date: 02 November 2020
Orbit: 630 x 664 km, 48.4° (Epoch: 29 November)

Event Time Altitude Azimuth Distance (km) Brightness Sun altitude
Rises 16:32:36 0° 287° (WNW) 2,959 10.8 70.4°
Reaches altitude 10° 16:35:14 10° 275° (W) 2,060 10.2 69.9°
Maximum altitude 16:39:16 27° 217° (SW) 1,267 9.1 69.0°
Drops below altitude 10° 16:43:22 10° 158° (SSE) 2,090 9.7 68.2°
Sets 16:46:03 0° 146° (SE) 3,011 10.4 67.7°
